{"data":{"norad_id":64672,"epoch":"2026-09-20T08:45:26.872704Z","epoch_age_seconds":142990,"freshness":"FRESH","line1":"1 64672U 25139J   26263.36489436  .00026444  00000+0  79068-3 0  9999","line2":"2 64672  53.1593 298.2646 0001666  83.8041 276.3151 15.34413094 70155","mean_motion":15.34413094,"eccentricity":0.0001666,"inclination_deg":53.1593,"raan_deg":298.2646,"arg_perigee_deg":83.8041,"mean_anomaly_deg":276.3151,"bstar":0.00079068,"rev_number":7015,"period_min":93.84695722624,"perigee_km":461.52464485612,"apogee_km":463.80399985673,"semimajor_km":6840.8013223564,"source":"CELESTRAK","updated_at":"2026-09-21T09:00:35.398381Z"}}